Union Aéronautique de la Côte d'Azur

Union Aéronautique de la Côte d'Azur
UACA
Approuvé A.T.O. EASA – N°FR.ATO.0108

UNION des aéroclubs
Cannes “Ailes d’Azur”, Nice “Côte d’Azur”, Grasse “St Exupery”, ACCA “Francis Séverac”

Un cache-pitot se trouve à bord de chaque avion. Pensez à le mettre en place à la fin de chaque vol !

Avant de quitter l'avion, vérifiez que vous n'emportez pas la checklist

Un vol ne s'entreprend qu'avec un pare-brise parfaitement propre, il en va de votre sécurité, et de celle des autres

Après chaque vol, merci de mettre en place les pares-soleil!


Météo à Cannes:
METAR
LFMD 112030Z AUTO VRB02KT CAVOK 09/04 Q1006 =
AMD LFMD 111708Z 1117/1215 25006KT CAVOK PROB30 TEMPO 1117/1120 RA SCT030CB BECMG 1123/1201 28012KT PROB30 TEMPO 1206/1208 28015G25KT

TAF
AMD LFMD 111708Z 1117/1215 25006KT CAVOK PROB30 TEMPO 1117/1120 RA SCT030CB BECMG 1123/1201 28012KT PROB30 TEMPO 1206/1208 28015G25KT =

SR / SS: 07:00 / 15:51 UTC (LFMD 2019-12-11)